Flag for Poland Weather past 2 weeks in Bielsko-Biała, Poland

Now
87 °F

Scattered clouds.


Feels Like: 85 °F
Forecast: 64 / 92 °F
Wind: 2 mph from Southwest

Location: Katowice

Current Time: Aug 31, 2015 at 8:34:23 PM

Latest Report: Aug 31, 2015 at 7:00 PM


Visibility: 19 mi

Pressure: 29.88 "Hg

Humidity: 29%

Dew point: 51 °F

Location of Bielsko-BiałaLocation

Historic Weather in Bielsko-Biała — Graph

°F

Bielsko-Biała temperature yesterday

Maximum temperature yesterday: 93 °F (at 4:00 PM)
Minimum temperature yesterday: 61 °F (at 2:00 AM)
Average temperature yesterday: 76 °F

Past Weeks' High & Low Weather Summary

 TemperatureHumidityPressure
High94 °F (Aug 31, 3:00 PM)98% (Aug 26, 3:00 AM)30.30 "Hg (Aug 26, 3:00 AM)
Low49 °F (Aug 22, 7:00 AM)23% (Aug 31, 2:00 PM)29.78 "Hg (Aug 17, 4:00 AM)
Average68 °F60%30.06 "Hg
* Reported Aug 16 7:00 PM — Aug 31 7:00 PM, Bielsko-Biała, Weather by CustomWeather, © 2015

Note: Actual official high and low records may vary slightly from our data, if they occured in-between our weather recording intervals... More about our weather records

Advertising

Bielsko-Biała weather history for previous 24 hours

 ConditionsComfort  
Time TempWeatherWind HumidityBarometerVisibility
7:00 PM
Mon, Aug 31
87 °FScattered clouds.2 mph29%29.88 "Hg19 mi
6:00 PM91 °FPassing clouds.3 mph27%29.88 "Hg19 mi
5:00 PM92 °FPassing clouds.5 mph25%29.88 "Hg19 mi
4:00 PM93 °FPassing clouds.6 mph23%29.90 "Hg19 mi
3:00 PM94 °FSunny.5 mph23%29.91 "Hg19 mi
2:00 PM93 °FSunny.5 mph23%29.92 "Hg19 mi
1:00 PM91 °FSunny.5 mph28%29.95 "Hg19 mi
12:00 PM90 °FSunny.5 mph29%29.97 "Hg19 mi
11:00 AM88 °FSunny.5 mph34%29.99 "Hg19 mi
10:00 AM85 °FSunny.5 mph40%30.00 "Hg12 mi
9:00 AM80 °FSunny.2 mph53%30.02 "Hg12 mi
8:00 AM73 °FSunny.1 mph73%30.03 "Hg9 mi
7:00 AM65 °FSunny.No wind92%30.05 "Hg6 mi
6:00 AM62 °FFog.No wind93%30.06 "Hg6 mi
5:00 AM63 °FClear.No wind88%30.06 "Hg6 mi
4:00 AM65 °FClear.No wind80%30.05 "Hg9 mi
3:00 AM66 °FClear.No wind77%30.06 "Hg9 mi
2:00 AM66 °FClear.1 mph77%30.07 "Hg9 mi
1:00 AM67 °FClear.1 mph73%30.08 "Hg12 mi
12:00 AM74 °FClear.2 mph56%30.07 "Hg12 mi
11:00 PM
Sun, Aug 30
69 °FClear.1 mph71%30.08 "Hg12 mi
10:00 PM71 °FClear.1 mph66%30.09 "Hg12 mi
9:00 PM71 °FPassing clouds.2 mph61%30.09 "Hg12 mi
8:00 PM79 °FPassing clouds.1 mph48%30.07 "Hg9 mi
Weather by CustomWeather, © 2015

See weather overviewHow to use our weather pages